Theta_e
333 332 333 330 327 328 331 332 330 329 331 332 331 331 330 330 330 329 328 327 327 327 327 326 327 326 325 325 325 326 327 327 327 327 327 327 327 326 327 327 326 326 327 328 329 330 331 331 330 330 330 329 328 328 328 327 327 326 325 323 321 321 321 320 318 315 314 313 311 311 312 312 312 312 312 311 308 308 311 312 312 310 308 307 308
332 332 332 331 329 329 332 332 330 329 330 331 330 329 330 330 329 329 328 328 327 326 326 326 326 326 326 326 325 325 326 326 326 326 326 326 326 325 325 325 324 325 325 326 328 330 332 330 330 330 331 329 328 328 328 327 327 326 324 321 320 321 321 319 317 316 316 315 313 312 312 312 312 313 313 312 310 309 310 312 312 311 309 309 311
331 332 332 332 331 332 333 333 331 330 329 329 329 329 329 330 329 329 328 327 327 326 326 325 325 326 326 326 325 325 325 324 325 325 326 326 325 325 324 324 324 325 325 324 325 329 331 330 329 330 330 329 329 328 327 328 327 325 322 320 319 319 319 318 317 317 317 317 315 313 312 313 313 313 313 313 312 310 310 312 313 312 311 312 313
331 332 332 333 334 334 333 333 331 329 329 329 328 328 329 330 329 329 328 327 327 327 326 324 324 324 324 324 324 325 324 324 325 325 325 325 325 324 324 324 324 324 324 323 323 326 329 329 329 330 329 330 329 327 327 327 326 323 321 319 318 317 318 317 317 318 318 318 317 314 314 313 313 313 313 314 314 313 311 312 314 314 313 313 314
332 332 332 332 334 334 333 333 332 329 329 329 328 328 330 330 330 329 328 327 327 326 324 323 323 323 323 323 324 324 324 323 324 324 324 324 324 324 323 323 324 323 322 323 322 324 328 329 329 330 331 330 329 327 326 325 324 322 321 319 318 316 317 317 317 317 317 318 317 316 315 314 314 314 314 314 314 315 313 313 313 314 314 314 314
330 329 328 328 330 331 331 331 332 331 330 329 328 329 330 330 330 329 327 326 325 323 321 321 321 321 321 322 322 323 323 323 323 323 323 323 323 324 323 322 323 323 322 322 322 324 326 329 329 329 330 330 328 325 324 323 322 321 320 319 318 317 317 316 316 317 317 317 317 316 316 316 315 315 315 314 314 315 315 315 314 314 314 314 313
328 328 327 326 326 328 327 328 331 332 330 329 329 329 329 329 329 327 325 323 321 320 320 321 320 320 319 319 319 320 319 319 320 320 321 321 322 323 324 323 322 322 322 322 323 324 325 328 329 328 329 329 326 323 322 322 321 321 320 319 318 318 318 317 317 317 317 317 317 317 316 316 316 316 315 315 315 315 315 315 315 314 314 314 314
327 327 327 325 324 326 327 328 330 331 330 330 329 328 328 328 327 324 323 322 320 320 321 320 320 320 319 319 319 318 318 318 318 318 319 320 321 322 323 323 322 322 322 322 322 323 324 327 329 329 329 328 325 323 322 321 321 320 320 320 319 319 319 319 318 318 318 318 318 318 317 317 316 316 316 316 315 315 315 315 315 314 314 314 314
327 327 327 326 326 327 327 327 328 329 329 329 328 327 327 326 324 323 322 322 321 320 320 319 319 319 318 318 318 319 321 320 318 318 319 319 320 320 322 323 322 321 322 322 322 322 322 324 326 327 327 327 325 324 323 321 321 321 321 321 321 320 320 320 320 319 319 319 319 319 319 318 318 317 316 316 315 315 315 315 315 315 315 315 315
327 328 328 327 327 327 326 327 327 327 327 326 326 326 325 323 322 321 321 321 321 320 319 318 318 317 317 319 320 322 322 320 317 317 319 319 319 319 319 320 322 321 321 320 321 322 322 323 323 324 325 325 323 323 322 321 320 322 323 322 321 321 321 320 320 320 320 320 320 320 320 320 319 318 317 317 316 315 315 315 315 315 316 316 315
328 328 328 328 327 325 325 326 326 325 326 326 326 326 325 324 323 322 323 323 323 322 322 321 320 320 322 322 320 318 317 316 314 315 316 318 320 321 319 319 320 320 320 320 320 321 322 321 319 318 319 320 320 319 319 319 318 320 321 321 321 321 321 320 320 320 320 320 319 319 320 320 319 319 318 317 317 316 316 316 316 316 316 316 316
325 326 326 326 325 325 324 324 324 324 325 325 324 324 324 324 322 321 321 320 320 321 323 323 323 323 322 321 317 314 313 313 312 313 314 315 316 319 320 319 319 320 320 320 319 320 321 321 319 317 318 318 317 316 315 315 315 315 317 317 317 318 319 319 319 319 319 319 319 319 319 319 319 319 318 317 317 317 316 316 316 316 316 316 316
321 322 323 324 323 324 324 323 322 322 321 320 319 318 318 318 318 318 317 316 317 319 321 322 321 319 318 316 315 314 314 313 313 313 313 313 314 316 318 319 318 318 319 319 319 319 319 320 320 320 320 319 318 317 316 314 313 313 313 313 313 313 313 315 316 316 316 317 319 319 318 318 318 318 317 317 317 317 317 317 317 317 317 317 317
316 317 319 321 322 322 321 321 320 319 317 316 316 315 315 315 316 317 317 317 319 321 321 319 317 315 315 315 314 315 315 315 315 314 313 314 313 313 317 320 319 318 320 320 320 320 320 320 321 320 320 320 318 318 318 318 317 315 313 313 312 312 312 312 312 312 312 312 315 317 318 318 318 318 318 317 317 317 318 318 318 318 319 319 319
310 311 312 315 317 319 319 318 317 316 315 315 315 315 315 316 316 317 317 317 318 319 319 318 315 314 313 314 315 315 315 316 318 317 315 315 314 313 317 321 319 318 320 320 320 321 321 321 321 321 321 321 320 318 319 320 321 320 319 317 317 317 317 317 315 314 313 313 314 316 317 318 319 319 319 320 320 320 320 320 319 319 320 319 318
308 308 308 308 310 312 313 313 313 313 313 314 314 313 314 314 314 314 314 314 314 315 316 316 315 313 312 312 312 311 312 314 317 318 317 317 317 318 320 321 320 319 320 320 320 320 320 320 320 320 320 321 321 320 319 319 319 320 321 321 320 320 320 320 320 318 317 317 317 318 318 319 319 319 320 321 323 322 321 320 319 320 319 319 318
306 306 306 306 306 307 308 309 309 310 310 311 311 311 311 311 311 312 312 311 311 311 312 312 313 313 312 311 308 307 309 311 313 315 316 317 318 320 320 321 321 322 322 322 321 320 321 321 321 321 321 321 321 320 319 317 317 318 319 319 319 320 320 320 321 320 319 318 318 318 318 318 318 318 318 319 321 321 320 319 320 320 320 320 319
305 305 305 305 305 305 306 306 307 307 307 308 308 308 309 308 309 310 310 309 310 309 308 308 309 310 311 310 308 305 305 307 308 309 311 313 315 316 317 318 320 322 323 324 323 322 323 323 321 321 322 322 322 322 321 319 318 319 321 320 320 320 320 320 320 321 320 319 318 318 317 317 317 317 317 317 317 317 317 317 318 319 320 319 318
304 304 304 304 305 305 305 305 305 305 305 306 305 306 306 306 307 308 308 308 308 308 307 307 307 306 305 306 307 306 304 302 303 304 305 306 309 313 314 315 317 318 318 319 321 321 322 322 322 321 320 321 322 322 322 321 320 320 322 322 321 320 320 321 322 322 321 320 319 319 318 318 317 317 317 317 317 316 315 314 315 317 318 318 317
303 304 304 304 304 305 305 305 305 305 306 306 305 305 305 305 306 306 306 306 306 307 307 307 307 306 304 302 302 302 301 300 299 300 301 301 303 307 311 312 312 313 313 314 315 316 318 320 320 319 318 317 317 317 317 317 318 319 320 321 322 322 322 322 322 321 321 321 320 319 319 320 320 319 318 317 317 317 316 315 314 314 316 317 317
302 303 303 303 304 304 305 305 306 306 306 306 305 305 305 305 306 305 305 305 306 306 306 306 306 306 306 305 303 300 298 298 297 297 298 298 298 302 306 307 305 305 308 310 310 311 315 317 317 316 315 313 312 312 310 308 308 310 312 314 317 319 320 320 320 320 320 320 319 318 318 319 320 320 319 319 318 318 318 317 316 315 316 317 317
301 302 302 302 303 303 304 304 305 305 305 306 306 306 305 306 306 306 306 306 307 306 306 307 307 306 307 307 306 303 301 299 297 296 296 297 296 297 299 299 298 299 304 307 309 309 310 312 312 311 310 310 309 308 306 303 302 302 304 305 307 309 311 313 315 316 318 320 320 319 319 320 320 319 319 319 319 318 317 317 317 316 316 317 317
300 301 302 302 302 302 302 303 304 305 305 306 306 306 306 306 306 307 307 307 307 307 306 307 307 307 307 307 307 306 304 301 298 296 296 296 296 296 296 296 296 297 300 303 305 306 307 309 309 308 308 307 305 303 302 300 300 300 300 301 301 302 303 304 305 309 313 317 319 318 318 319 318 318 318 318 317 316 316 316 315 315 315 315 316
300 301 301 302 302 302 302 302 304 305 305 305 306 306 306 306 306 306 306 307 307 307 307 306 307 307 307 307 306 306 305 304 302 299 298 297 297 296 296 296 296 295 296 300 302 304 305 305 305 304 303 302 300 299 298 298 299 299 300 300 300 301 301 302 303 305 309 312 315 316 316 317 317 317 316 315 314 313 314 313 313 312 311 311 311
299 300 300 301 302 302 302 302 303 304 304 304 305 305 306 306 305 305 305 305 306 306 305 305 305 306 306 306 306 305 305 305 304 302 300 299 299 298 298 298 297 296 297 299 301 301 301 300 299 298 297 297 296 296 297 299 300 300 299 299 299 300 301 303 306 308 309 310 312 313 314 315 316 316 314 313 312 311 311 310 310 309 308 307 307
299 299 300 300 301 301 302 302 302 303 303 303 304 304 305 305 305 305 305 305 305 305 305 304 305 305 305 305 306 305 305 305 305 303 302 301 301 300 300 300 300 299 300 302 301 301 301 299 297 297 298 298 298 298 299 300 300 300 299 299 299 300 304 306 308 309 309 310 311 312 312 313 314 314 313 312 310 310 309 308 307 306 304 303 303
300 300 300 300 300 300 301 301 302 302 302 302 302 303 304 304 304 304 304 305 305 305 305 305 305 305 305 305 305 305 305 305 304 302 300 300 300 300 301 302 301 302 303 302 302 301 300 299 299 300 302 303 303 303 304 304 304 303 303 303 303 305 307 308 308 308 309 309 310 311 311 311 311 312 312 310 309 307 307 307 305 303 302 301 300
300 300 300 300 300 300 300 301 301 302 302 301 300 300 301 302 303 302 300 300 302 303 305 305 304 304 305 305 304 305 306 303 300 299 298 298 297 298 300 301 300 301 301 300 299 299 299 300 302 304 305 305 305 305 305 305 306 306 306 306 306 307 307 307 307 307 307 307 308 309 309 310 310 310 309 309 307 305 305 304 303 302 301 300 299
300 300 300 300 300 300 301 301 301 302 302 301 299 298 298 299 301 301 299 297 298 299 300 301 300 301 303 303 303 303 303 300 298 297 297 297 296 296 297 298 298 299 299 299 299 300 301 302 303 304 304 304 304 304 304 304 304 304 304 305 305 305 305 305 306 306 306 307 307 308 308 309 309 309 308 306 305 304 303 303 301 300 299 299 298
299 299 299 300 300 300 301 301 301 302 302 302 301 300 299 298 298 298 298 297 297 297 297 297 297 298 300 301 300 300 299 298 297 297 297 297 297 296 296 297 298 299 299 299 300 300 301 303 303 303 302 303 303 302 302 303 303 303 303 303 304 304 304 305 305 305 305 306 306 306 307 308 307 307 307 305 303 302 302 301 300 299 298 298 298
299 299 299 299 299 300 300 301 301 301 302 302 302 302 302 300 298 297 297 297 297 297 297 297 297 297 298 298 298 298 298 298 298 298 298 297 297 297 297 298 299 299 299 300 300 301 302 302 302 302 302 302 302 302 302 302 302 303 303 303 303 304 304 304 305 305 304 304 304 305 305 305 304 305 305 304 302 301 300 300 299 298 298 298 298
299 299 299 299 298 299 300 300 300 301 301 301 302 302 303 302 300 298 298 298 298 297 297 297 297 297 298 298 298 298 298 298 298 298 298 298 298 297 297 298 299 299 300 300 300 301 301 302 302 302 301 301 302 302 302 302 302 303 303 303 303 303 304 305 305 304 304 303 303 302 303 302 302 302 302 301 300 299 298 298 298 298 298 298 298
299 299 299 299 299 299 300 300 300 300 300 301 301 301 302 303 302 301 300 299 299 299 298 297 297 297 297 298 298 298 298 298 298 298 298 298 298 298 298 299 299 300 300 301 301 301 301 301 301 301 301 301 301 301 301 301 302 302 302 302 302 303 303 304 304 303 302 301 301 300 301 301 300 300 299 299 298 298 297 297 297 297 297 297 296
298 298 298 299 300 300 300 300 300 300 300 300 300 300 301 301 302 302 301 301 300 300 300 299 297 297 297 298 298 298 298 298 298 298 298 298 298 299 299 299 300 300 301 301 302 302 301 301 301 301 301 301 301 301 301 301 301 301 301 302 302 302 302 302 301 300 299 299 299 299 299 299 299 298 297 297 297 296 296 295 295 295 295 295 295
298 297 297 298 299 300 299 299 300 300 300 300 300 300 300 300 301 301 302 301 301 301 301 300 299 298 297 297 298 297 297 297 297 298 298 299 299 300 300 300 301 301 301 302 302 301 301 301 301 301 301 301 300 300 300 300 300 300 300 300 300 300 300 299 298 297 297 297 297 297 298 298 297 296 296 296 295 295 294 294 294 294 295 295 295
299 298 298 299 299 299 299 299 299 299 299 299 299 299 299 300 300 300 301 301 301 301 301 301 300 299 298 297 297 297 297 296 296 297 297 298 299 300 300 301 301 301 301 301 301 301 301 301 301 300 300 300 299 299 299 299 299 299 298 298 297 297 296 296 295 295 295 294 294 295 295 296 295 295 295 294 294 294 293 293 293 293 293 294 294
298 298 298 299 299 299 299 299 298 297 298 299 299 299 299 299 299 299 300 300 300 300 300 300 300 300 299 298 297 297 297 297 297 296 297 298 299 299 300 300 301 301 300 300 300 300 300 300 300 300 299 299 298 298 298 297 297 297 296 296 295 294 294 294 293 293 293 293 293 293 293 293 293 293 293 293 293 292 292 292 292 292 292 293 293
298 297 297 298 299 299 299 298 298 297 298 299 299 299 298 298 298 299 299 299 299 299 300 300 299 299 299 298 297 298 298 298 297 297 297 297 298 299 299 299 299 299 299 298 298 298 299 299 299 298 298 298 297 297 296 296 296 295 295 295 294 294 294 293 293 292 292 292 292 292 292 292 292 292 292 292 292 292 292 292 292 292 292 292 292
299 297 295 296 297 298 298 298 298 298 298 298 298 298 298 298 298 298 298 298 298 298 299 299 298 297 297 297 297 298 298 298 298 297 297 297 297 297 297 297 297 297 296 296 296 296 297 297 297 297 296 296 296 295 295 294 294 294 293 293 293 293 294 293 293 292 292 292 292 292 292 292 292 292 292 292 291 291 291 291 291 291 291 292 292
298 298 296 295 297 298 297 297 298 298 298 298 298 298 297 297 297 298 298 298 298 298 298 298 297 296 296 296 296 297 298 298 298 297 297 296 296 296 296 296 296 295 295 295 295 295 295 295 295 295 295 295 295 295 294 294 294 293 293 293 292 293 293 293 292 292 292 292 292 292 292 292 292 292 291 291 291 291 291 291 291 291 291 292 292
298 298 297 296 296 297 297 297 297 298 298 297 297 298 297 297 297 297 297 297 297 297 297 297 296 295 295 295 295 296 296 297 297 297 296 296 295 295 295 295 295 294 294 293 293 293 293 294 293 293 293 293 293 294 294 294 294 294 293 293 293 293 292 292 292 292 292 292 292 292 292 292 291 291 291 291 291 291 291 291 291 291 292 291 291
297 298 298 297 296 297 298 298 297 297 297 297 297 297 297 297 297 297 297 297 297 297 297 297 296 296 295 295 295 296 296 297 296 296 296 295 295 294 294 294 294 294 293 292 292 292 292 292 292 292 292 292 292 292 292 293 293 294 293 293 293 293 292 292 292 292 291 291 291 291 291 291 291 291 291 291 291 291 291 291 292 292 292 291 291
297 297 297 297 297 296 296 297 297 297 297 297 296 296 296 296 297 297 296 296 297 296 297 297 297 296 296 295 296 296 296 296 296 296 295 295 294 294 294 294 293 293 292 292 291 291 291 291 291 291 292 292 292 292 291 292 292 293 292 292 292 292 292 292 292 291 291 291 291 291 291 291 291 291 291 291 291 291 291 291 292 292 291 291 291
297 297 297 297 297 296 296 296 297 297 296 296 296 295 295 296 297 296 296 296 296 296 296 296 296 296 296 296 296 296 296 295 295 295 295 294 294 294 294 293 293 292 292 292 292 291 291 291 291 292 292 292 292 292 292 292 292 292 291 291 291 291 291 291 291 291 291 291 291 290 290 291 291 291 291 291 291 291 291 291 291 291 291 291 291
297 297 297 297 297 296 296 297 297 296 296 296 295 295 296 296 296 296 296 296 296 296 296 296 296 296 296 295 295 295 295 295 294 294 294 294 294 293 293 293 292 292 291 292 292 292 292 292 292 292 292 292 292 292 292 292 291 291 291 291 290 290 290 290 290 290 290 290 291 291 291 291 291 291 291 291 291 291 291 291 291 291 291 291 291
298 297 297 297 297 296 296 297 297 296 296 296 296 296 296 296 296 296 296 296 296 296 296 296 295 295 295 295 295 295 295 294 294 293 293 293 293 292 292 292 292 291 291 291 292 292 292 292 292 292 292 292 292 292 292 292 292 292 291 291 291 290 290 290 290 290 290 291 291 291 291 291 291 291 291 291 291 291 291 291 291 291 291 291 291
298 297 297 296 296 296 296 296 297 296 296 296 296 296 296 296 296 295 295 295 295 296 296 296 295 295 295 295 294 294 294 294 293 293 292 291 291 291 290 290 290 290 290 290 291 291 291 291 291 291 291 291 291 291 292 291 291 291 291 291 291 290 289 289 290 290 290 291 291 291 291 291 291 291 291 291 291 291 291 291 291 291 291 291 291
298 297 297 296 296 296 296 296 296 296 296 296 296 295 296 296 296 296 296 295 295 295 295 295 295 295 295 295 295 294 294 294 294 293 292 292 291 290 289 289 289 289 289 288 289 289 288 288 289 289 289 288 289 289 290 290 290 290 290 290 291 290 289 289 289 290 290 290 290 290 290 290 290 291 291 291 291 291 291 291 291 291 291 291 291
297 297 297 296 296 296 296 296 296 296 296 296 296 295 295 296 296 296 296 296 295 295 296 295 295 295 295 295 295 294 294 294 293 293 293 292 292 291 289 289 289 289 289 288 288 288 287 287 287 287 287 287 287 287 288 288 288 289 289 289 289 289 289 289 289 289 290 290 290 290 290 290 290 291 291 291 290 291 291 291 291 291 291 291 291
297 297 297 296 296 296 296 296 296 296 296 296 296 296 296 296 296 296 296 296 296 295 295 295 295 295 295 295 294 294 294 294 293 293 292 292 292 291 290 289 289 289 289 289 289 288 288 288 287 287 287 287 287 287 287 287 288 288 289 289 288 289 289 289 288 289 289 290 290 290 290 290 290 291 291 291 290 291 291 291 291 291 291 291 291
296 297 296 296 296 296 296 296 296 296 296 296 296 296 295 296 296 296 295 296 296 296 295 295 295 295 295 294 294 294 294 293 293 293 292 292 292 291 290 289 289 289 289 289 289 289 289 288 288 288 287 287 287 287 287 288 288 288 288 288 288 288 288 288 288 288 289 290 290 290 290 290 290 291 291 291 291 291 290 290 291 291 291 291 291
Wind_Speed
26 25 23 24 27 26 23 24 24 21 19 17 16 16 15 13 13 12 11 10 10 10 9 10 9 8 8 8 8 8 6 4 4 4 6 6 6 6 6 6 6 5 6 6 6 7 8 9 10 10 10 11 14 15 15 15 16 16 13 9 8 9 11 10 13 12 10 10 11 14 15 15 14 14 14 14 15 15 12 13 16 15 13 12 12
24 23 21 21 23 23 22 23 22 19 18 17 16 16 15 14 13 12 11 10 10 9 9 9 9 8 8 8 8 8 7 5 4 4 5 6 6 6 6 6 6 6 6 6 6 7 8 9 10 9 10 12 14 15 15 17 17 17 14 9 9 10 11 10 16 13 10 11 11 13 15 14 14 14 14 14 15 16 14 13 14 14 13 13 14
21 20 19 20 21 21 21 21 19 18 19 18 16 16 15 14 14 12 12 11 9 9 9 9 8 8 8 7 7 8 8 6 4 4 5 5 5 5 5 5 5 5 6 6 7 7 8 9 10 10 10 10 11 11 12 15 15 14 13 9 9 11 10 10 18 15 12 13 12 13 15 14 13 14 15 14 14 15 15 14 13 12 12 13 13
18 16 17 18 18 18 19 19 18 19 19 18 17 17 15 14 14 13 12 11 9 9 8 8 8 7 7 7 7 8 8 7 6 5 4 5 5 5 5 5 5 5 4 4 5 7 9 9 10 11 11 9 10 10 11 14 14 12 12 9 10 10 8 8 17 17 13 12 12 13 14 14 13 13 15 15 15 15 14 15 14 13 12 12 12
15 15 16 16 16 17 17 16 18 20 18 17 18 17 15 13 13 12 11 10 9 8 8 8 8 8 7 7 7 8 8 7 6 6 5 4 4 5 6 5 6 5 3 2 2 5 8 9 9 10 10 9 10 11 13 16 15 13 12 11 10 10 7 6 12 16 16 13 12 12 13 14 13 13 14 15 15 15 14 14 14 14 13 12 12
17 18 18 16 15 18 18 14 15 18 18 17 17 16 14 13 12 12 11 10 9 8 9 9 8 8 7 6 7 7 6 6 6 5 5 5 4 5 6 6 6 5 4 3 2 5 8 9 9 10 9 9 10 11 13 14 13 12 12 11 10 10 9 7 7 10 13 13 12 11 12 13 13 12 14 15 15 14 14 14 14 14 13 13 13
20 23 21 18 15 16 17 16 15 16 17 17 15 14 14 12 12 12 10 10 9 9 9 9 8 7 7 6 6 6 5 4 4 4 5 6 5 5 5 6 6 5 5 4 2 4 7 8 9 10 9 9 10 11 12 12 11 12 12 10 10 11 10 9 8 7 8 10 12 12 12 13 13 12 13 14 14 14 13 13 13 14 14 14 13
20 23 22 19 15 13 13 17 18 16 15 17 15 14 14 13 12 12 10 10 10 9 9 9 7 7 7 6 6 6 4 3 4 3 3 5 5 6 6 7 7 6 5 4 2 3 5 6 6 7 7 9 10 10 11 11 10 10 11 9 9 10 11 10 10 9 9 9 10 11 12 13 13 13 12 13 14 14 13 13 13 13 13 14 14
19 20 21 19 16 15 15 15 16 15 14 16 16 15 15 14 13 12 11 10 10 10 10 9 8 7 7 6 5 5 4 4 5 4 2 3 4 5 6 7 8 8 7 6 4 3 4 5 4 4 5 8 10 10 9 10 9 8 8 9 8 8 10 10 10 10 11 11 11 12 12 13 13 14 13 13 13 13 13 13 13 13 13 14 15
21 21 20 20 19 20 19 15 15 17 17 17 16 15 15 15 14 13 12 11 10 10 9 9 8 7 7 7 6 4 2 2 5 4 3 3 1 3 6 7 7 8 8 7 6 5 5 5 4 5 6 7 10 10 8 9 10 7 6 9 9 8 9 10 11 11 11 11 12 12 13 12 13 13 13 13 13 12 12 13 14 14 14 15 15
22 21 20 21 21 22 20 17 15 15 16 17 17 15 15 15 15 13 12 12 10 9 8 8 7 7 8 8 6 5 3 3 5 5 4 3 0 2 3 6 7 7 8 8 7 7 6 6 6 5 5 6 9 10 9 10 11 8 6 9 9 8 8 9 9 10 10 10 11 11 12 12 12 12 13 13 13 13 13 13 14 14 15 15 15
21 20 19 20 20 20 20 17 15 15 15 16 16 15 14 14 13 13 13 12 10 9 9 8 7 8 8 8 7 6 6 6 7 6 5 5 2 1 1 4 6 7 8 8 8 8 8 7 7 6 6 7 8 7 7 8 9 9 8 9 10 10 10 9 9 8 8 9 10 10 11 11 11 11 13 13 13 14 14 15 15 16 16 16 17
23 20 19 19 19 20 20 17 15 15 16 16 17 17 17 14 10 8 8 8 8 8 7 7 7 7 7 7 7 6 6 6 7 8 7 6 5 4 4 4 5 7 7 7 7 7 9 8 8 7 7 7 7 6 6 7 7 8 9 10 10 12 13 13 13 13 11 9 9 10 10 9 10 11 12 12 12 13 14 16 16 17 17 17 17
21 20 18 17 18 19 20 17 15 16 17 18 19 18 18 15 8 5 5 6 7 8 8 8 8 8 8 8 8 6 6 5 5 6 7 7 7 7 4 4 4 5 5 5 5 5 6 7 7 8 8 7 7 7 7 7 7 8 9 10 11 12 13 14 15 16 15 14 12 12 11 10 10 11 10 11 12 13 14 15 15 16 15 14 13
20 19 18 17 16 16 16 15 15 17 17 18 18 16 15 14 12 10 8 8 9 10 9 9 9 9 9 8 8 7 7 6 5 4 4 4 6 7 4 3 4 4 3 4 4 3 4 4 4 5 5 5 6 7 7 6 7 8 9 10 11 12 13 14 15 15 15 15 15 14 13 12 12 12 11 11 12 12 12 12 12 12 12 11 12
20 19 20 18 16 15 15 15 17 18 17 17 18 17 16 14 12 12 10 9 11 11 10 10 10 8 8 7 7 8 7 6 5 5 4 4 4 3 4 4 5 5 5 5 5 5 5 5 5 5 4 4 6 9 9 9 8 8 10 11 12 13 14 14 15 16 15 14 14 14 15 15 16 15 14 13 12 11 11 12 11 11 12 14 15
21 22 22 21 19 17 17 18 19 20 19 19 19 18 16 13 11 10 10 11 12 12 11 11 10 9 8 7 6 6 7 6 5 4 4 4 4 1 2 4 4 3 4 4 5 6 6 6 6 5 3 5 8 10 11 12 11 11 13 14 14 15 15 16 17 19 19 18 17 18 18 19 20 20 19 19 17 16 14 13 14 14 13 13 14
21 22 23 21 20 20 20 20 20 20 19 19 18 17 15 13 12 11 11 12 13 12 11 10 9 8 8 8 6 4 4 5 3 3 2 2 3 2 4 3 2 2 2 4 4 4 6 7 7 6 5 7 9 10 12 13 13 12 13 15 16 17 17 17 17 18 19 20 21 22 23 23 24 24 25 24 25 25 22 20 19 16 14 14 15
20 20 19 18 18 19 19 18 19 18 17 17 17 17 15 14 13 11 10 11 12 10 8 7 7 6 6 7 6 3 2 2 2 1 1 0 2 1 5 6 3 3 4 4 3 2 4 6 6 7 8 10 11 11 13 14 14 13 13 14 16 18 18 17 15 13 14 19 22 22 23 24 25 27 29 29 29 30 29 28 25 20 18 19 19
17 17 17 17 16 16 16 16 16 15 13 12 13 13 12 11 10 10 9 9 9 8 5 5 6 5 4 4 3 2 2 3 4 3 3 3 1 0 3 5 4 5 6 6 5 4 4 5 5 7 8 9 11 11 12 13 14 16 15 14 14 15 16 17 16 14 13 17 21 21 21 22 23 25 28 31 33 33 32 31 29 25 22 21 20
17 17 17 17 16 15 15 14 14 13 11 10 9 9 9 8 8 8 7 7 7 6 5 5 5 5 4 3 2 2 3 5 6 5 5 5 2 1 1 4 5 5 7 7 7 7 3 3 2 5 8 8 10 11 12 13 14 16 17 16 16 17 17 20 21 19 16 16 19 21 22 23 22 21 21 24 28 32 33 34 32 28 23 20 19
17 17 17 16 16 15 15 14 13 12 11 9 8 8 7 6 5 5 5 6 6 4 4 4 4 4 4 4 3 2 3 6 7 7 6 6 4 1 2 5 5 4 6 7 7 7 5 3 4 8 11 11 13 15 16 18 18 19 19 19 20 20 21 22 24 22 18 16 18 20 22 24 26 25 23 23 24 25 26 28 29 28 25 24 22
16 16 16 16 15 15 14 13 13 12 10 9 8 7 6 5 5 4 4 4 4 4 3 3 3 4 4 4 4 4 2 4 8 10 9 8 7 6 5 6 5 4 5 6 7 8 8 8 11 13 15 16 19 20 21 22 22 22 22 23 23 22 22 23 24 22 20 19 20 22 21 22 24 26 26 24 22 21 22 22 23 26 27 28 27
16 16 16 15 15 14 14 13 12 11 10 9 8 8 6 5 5 4 3 2 3 3 3 3 3 3 4 4 4 5 4 2 6 11 11 10 10 10 10 9 9 8 6 5 6 8 9 12 16 18 19 21 22 23 23 23 22 22 22 22 23 23 23 23 22 20 19 19 20 21 21 22 23 24 24 23 20 20 22 20 18 18 18 19 20
17 16 15 15 13 12 12 13 12 12 11 10 9 8 7 6 6 5 4 3 3 2 2 2 2 2 2 3 3 3 3 3 4 9 12 12 12 13 12 11 11 10 8 6 7 9 12 15 17 18 19 20 21 21 21 19 19 21 21 21 22 23 22 20 17 15 15 15 16 18 19 21 23 21 19 20 21 21 19 17 15 16 15 14 14
15 15 14 13 13 12 11 11 11 11 11 10 10 9 8 7 6 5 4 4 3 3 3 2 2 2 2 3 3 3 2 3 4 8 11 12 12 13 13 12 12 11 10 8 10 12 14 16 16 15 14 15 15 16 15 15 17 19 21 21 21 20 17 15 13 13 14 14 15 16 17 18 19 16 14 17 19 20 19 17 13 13 12 11 10
13 13 12 12 12 12 11 11 10 10 10 10 9 9 8 8 7 7 7 7 5 4 4 4 4 4 4 3 3 2 3 5 6 8 9 9 9 10 10 10 11 11 10 9 10 12 13 15 15 14 12 12 12 12 13 13 14 14 14 15 16 15 14 13 13 13 14 15 16 16 15 15 15 13 12 13 12 13 16 16 13 12 13 12 11
11 11 11 10 10 9 10 11 10 9 10 11 12 11 10 9 9 9 9 9 8 7 7 7 7 7 6 5 4 2 4 8 9 9 8 7 7 7 7 8 8 9 9 9 10 11 12 13 13 12 11 11 11 11 11 12 12 12 12 12 13 13 13 15 15 15 16 16 17 17 16 16 15 11 8 8 8 9 12 13 13 15 16 15 14
10 11 10 9 9 8 9 9 9 8 8 9 11 13 12 11 9 7 8 8 6 6 7 7 7 6 7 7 6 5 6 8 9 9 7 6 5 5 5 6 6 7 8 9 10 10 9 9 9 10 10 10 10 10 10 11 12 12 13 13 14 14 14 15 15 15 15 15 16 16 16 15 14 10 8 8 8 9 11 12 14 15 15 12 10
9 10 10 9 8 7 8 8 7 7 6 6 6 7 10 13 12 8 6 7 6 6 6 7 6 6 6 7 7 6 7 9 9 8 6 5 3 3 4 4 6 7 8 8 8 8 7 7 8 9 10 11 11 11 11 11 12 13 13 13 13 14 14 14 14 14 15 17 17 17 16 12 11 12 13 11 9 10 11 12 13 14 14 11 9
7 8 8 9 9 8 7 7 6 6 6 5 4 3 4 9 14 13 11 10 9 8 8 8 8 7 7 7 7 7 8 9 9 8 6 4 2 2 3 4 7 8 7 7 8 8 8 8 9 9 9 10 11 11 12 12 12 13 14 14 14 14 14 13 11 11 13 14 15 15 15 12 11 12 13 12 10 10 11 13 13 13 13 12 10
7 6 6 6 7 7 5 5 5 5 4 4 4 2 2 5 10 12 12 12 11 10 10 10 10 10 10 9 8 8 9 9 9 8 7 5 4 3 3 4 7 7 7 7 8 8 8 9 10 10 10 10 11 11 12 13 13 13 14 14 14 14 13 11 10 10 10 10 11 12 13 13 11 11 10 10 10 9 11 13 13 13 13 12 11
7 6 5 4 4 4 4 4 3 3 3 3 3 4 3 2 5 6 6 7 8 9 11 12 12 11 11 11 9 9 10 11 10 10 8 7 5 3 2 3 5 7 8 8 8 7 9 9 9 10 10 10 11 11 12 12 13 13 14 14 14 15 13 12 11 10 9 9 11 12 12 12 10 8 7 8 10 9 10 12 12 12 12 12 12
5 6 6 6 5 3 3 4 3 2 3 3 2 2 3 3 2 1 5 5 4 4 5 9 12 13 12 11 10 10 11 11 11 11 9 7 5 3 2 3 2 2 6 8 8 8 9 10 10 10 11 11 11 12 12 12 12 12 13 14 14 14 14 13 13 12 11 12 12 12 11 10 8 6 6 7 10 11 11 11 12 12 12 12 11
4 4 4 4 5 3 2 3 2 1 2 2 2 2 2 2 2 2 1 2 3 4 5 4 7 11 13 11 9 10 11 11 11 11 9 7 7 7 6 5 2 2 4 6 7 8 9 9 10 11 11 11 12 12 12 12 12 11 12 13 13 13 13 13 13 12 12 11 11 10 9 6 5 4 6 8 9 10 10 10 11 11 10 9 8
2 2 2 1 2 3 2 2 3 3 1 1 2 2 2 2 1 1 1 2 2 0 3 4 3 5 9 10 8 9 11 12 12 12 11 10 10 10 9 7 6 6 6 7 8 9 9 9 10 11 11 12 12 12 11 11 11 11 11 11 11 12 12 12 11 10 9 8 8 6 4 2 1 4 8 10 10 11 11 11 11 11 9 8 7
3 3 4 2 1 1 1 1 3 3 2 4 3 0 2 2 1 1 1 3 4 5 2 3 2 2 5 8 8 8 8 9 12 14 13 12 12 11 10 9 9 8 8 8 9 9 9 9 10 11 11 11 12 11 11 10 10 11 11 10 10 11 11 11 10 8 8 8 8 6 7 8 9 10 12 14 14 13 14 13 12 10 9 8 6
1 5 7 4 1 1 1 1 0 2 5 5 3 2 2 1 2 1 1 3 3 4 3 3 4 4 5 7 7 7 6 7 8 11 12 12 12 11 9 9 10 9 8 8 9 9 9 10 10 11 11 11 11 11 10 10 10 10 10 9 9 10 10 10 9 9 9 9 10 11 12 14 15 15 16 16 16 14 13 12 10 8 7 5 3
2 6 8 3 3 3 4 1 2 3 3 2 1 1 1 2 2 1 1 2 2 3 3 3 6 8 8 7 7 6 6 7 8 9 10 10 11 10 9 9 9 9 8 8 8 8 9 9 10 10 10 10 10 10 10 11 10 9 9 8 8 9 10 9 9 10 11 11 13 14 14 15 15 15 14 15 15 14 13 11 10 7 4 2 2
1 3 6 3 2 4 4 3 3 2 1 1 1 1 1 2 2 1 1 1 2 2 3 5 8 9 9 8 8 7 7 8 9 9 9 10 10 10 10 9 9 9 8 8 8 8 9 9 9 10 10 10 10 10 10 11 10 9 9 9 9 9 10 10 10 11 11 11 12 14 14 14 13 13 13 13 13 12 11 10 8 6 3 2 3
3 1 2 4 3 3 4 3 3 2 1 2 3 2 1 2 2 1 1 1 1 2 4 6 8 8 9 9 8 7 7 8 8 8 8 9 10 10 9 10 10 10 9 8 8 9 9 9 9 9 9 9 10 10 10 10 10 9 9 10 10 10 11 12 12 12 11 11 12 12 11 10 10 10 10 11 10 10 8 6 5 4 3 2 3
5 3 3 5 2 3 4 3 2 0 1 2 3 2 2 2 2 1 0 0 1 3 4 5 6 7 8 9 9 9 8 7 7 7 8 8 9 9 9 9 10 10 9 8 8 9 9 9 9 8 9 9 9 9 9 9 9 9 9 9 10 10 11 12 13 12 11 12 12 12 11 9 8 7 6 7 7 7 5 5 4 4 4 3 3
4 4 2 2 4 4 3 3 2 2 2 1 1 1 2 1 1 1 1 2 2 3 4 4 4 5 6 7 9 9 8 7 7 7 7 7 8 9 9 9 9 9 8 8 8 8 8 8 8 9 10 10 10 9 9 9 9 9 9 10 10 10 9 10 11 11 11 11 11 11 10 8 7 8 8 8 8 7 6 6 6 5 5 4 4
4 4 3 4 5 4 2 1 1 1 1 1 1 1 1 1 2 2 3 3 3 3 4 5 4 4 4 5 6 6 6 6 6 6 6 7 8 8 8 9 9 8 8 8 9 9 10 10 10 10 10 10 10 11 11 10 10 10 9 10 10 11 11 11 11 10 10 9 9 8 7 6 6 7 7 6 6 6 7 7 7 6 5 5 5
4 5 4 3 4 3 1 1 0 1 2 2 3 1 1 1 2 3 3 3 4 4 4 4 4 3 4 4 5 5 6 6 6 6 6 6 7 7 8 8 8 8 8 8 9 9 10 10 9 9 9 10 10 10 10 11 10 10 10 10 10 10 11 10 9 9 9 8 8 7 7 7 6 5 5 5 6 6 7 6 5 5 5 6 6
4 4 4 4 3 3 2 1 2 2 2 2 2 1 1 2 3 3 3 3 3 4 4 3 3 2 3 4 4 5 5 6 7 7 7 7 7 7 7 7 7 7 8 8 9 9 9 9 9 9 9 9 9 9 9 10 9 9 9 9 9 8 7 7 6 7 6 6 6 6 6 7 6 5 6 7 7 7 6 5 4 4 5 5 6
4 4 5 4 3 4 2 1 2 1 2 2 1 1 2 3 4 4 4 3 3 3 3 3 3 3 3 4 4 5 5 5 6 7 6 7 7 7 7 7 7 7 7 8 8 8 8 8 8 9 9 8 8 7 7 8 8 8 8 7 6 5 5 5 5 5 4 5 5 5 5 6 5 5 6 7 7 5 5 4 4 4 4 4 4
5 5 5 4 4 4 3 3 6 4 3 2 1 2 3 4 4 5 5 4 4 4 3 3 3 3 4 4 4 4 4 5 5 6 6 6 6 6 6 7 7 6 7 8 8 8 7 7 7 8 8 8 7 7 7 6 6 6 6 5 5 4 3 3 4 4 3 4 5 4 5 5 6 6 6 6 6 5 6 6 5 5 4 4 4
5 6 6 5 5 5 4 3 5 6 4 3 2 3 5 5 4 4 5 4 4 4 4 4 4 4 4 4 4 4 4 4 4 5 5 5 5 5 5 6 6 5 6 6 7 8 8 8 8 9 8 7 8 8 7 6 5 5 5 5 5 4 3 3 3 3 3 4 5 5 4 5 5 5 5 5 5 6 6 6 6 5 5 5 5
7 7 7 6 6 6 5 4 4 4 3 3 4 5 5 5 5 5 5 5 5 5 4 4 4 4 4 3 3 3 3 4 4 4 5 5 4 4 4 4 4 4 4 4 5 6 6 6 7 7 7 7 7 7 7 6 6 6 6 5 4 3 3 2 2 3 3 5 6 6 5 4 4 4 5 5 5 6 5 5 6 6 5 6 7
8 8 8 8 7 7 6 6 5 4 4 4 5 6 6 6 6 6 6 5 5 5 5 4 4 4 4 3 3 3 3 3 3 4 4 4 3 3 3 3 3 3 3 3 4 4 4 5 5 5 6 6 6 6 6 7 7 6 6 6 5 3 3 3 3 4 4 5 6 5 4 4 3 3 4 4 4 4 4 4 5 6 5 6 6
Wind_Direction
167 163 163 165 167 165 165 174 182 182 173 164 159 155 157 163 161 158 158 157 158 159 158 157 159 160 162 164 169 172 172 175 170 163 164 164 170 180 183 191 197 189 193 208 211 206 201 198 196 193 192 183 178 183 177 171 181 186 191 200 175 184 213 182 140 143 160 161 159 161 164 165 169 174 170 174 183 182 182 196 208 216 213 210 218
167 166 163 162 164 164 168 176 178 174 168 164 159 157 160 162 159 157 157 156 157 160 156 155 160 163 166 168 169 174 179 177 175 175 164 159 167 174 177 186 188 180 186 200 203 204 202 198 196 194 196 191 185 185 176 171 182 185 183 189 169 182 217 177 137 144 160 163 170 165 166 177 179 179 180 178 184 191 193 199 207 214 216 216 224
167 166 163 161 163 163 166 171 170 165 164 161 158 159 162 163 161 158 157 157 158 159 154 154 160 165 170 171 169 176 180 171 177 185 169 171 177 171 172 178 172 170 184 196 197 200 204 200 192 187 195 200 188 182 175 171 177 180 179 183 164 177 214 172 140 150 165 167 178 172 169 187 191 185 188 186 187 195 201 205 205 208 215 216 220
161 157 154 156 159 160 161 162 162 161 160 159 160 163 164 163 161 159 157 156 157 156 152 155 161 163 170 174 170 177 178 169 178 187 173 182 186 174 172 170 166 176 191 201 193 196 205 203 190 185 193 198 186 178 175 171 173 180 180 173 162 174 206 172 149 157 167 171 184 182 174 186 199 196 192 191 193 197 205 211 210 211 217 215 217
148 144 147 149 149 150 152 155 160 160 158 158 161 163 163 162 161 159 156 155 153 152 152 155 158 158 166 171 167 174 177 171 180 187 175 185 193 182 180 174 173 179 183 206 199 194 207 206 190 189 194 191 186 182 176 173 176 182 182 175 168 168 186 189 164 160 165 172 187 192 181 183 199 205 198 196 196 199 208 215 214 215 218 212 217
137 138 142 140 138 146 151 155 157 155 156 159 161 163 162 160 159 158 154 154 151 151 151 149 150 155 160 162 161 167 172 171 181 186 179 188 197 190 185 180 181 182 180 197 193 186 208 211 191 192 196 186 183 181 175 176 178 179 184 186 175 163 172 195 188 171 172 175 183 195 194 189 197 207 207 204 201 202 208 215 219 220 217 212 217
144 147 145 138 138 150 157 159 154 148 153 158 158 162 161 157 159 159 153 151 151 151 147 144 149 156 156 155 154 155 159 167 176 188 193 194 194 192 190 186 187 186 185 189 154 171 207 216 194 188 189 177 179 180 173 178 184 178 183 193 182 169 176 192 200 199 194 188 188 198 203 199 201 210 214 210 208 211 212 214 221 222 220 218 214
153 154 151 144 145 153 154 156 153 146 151 157 157 160 160 157 162 160 150 147 152 150 144 143 147 147 147 148 146 143 139 133 140 165 196 191 190 195 193 194 196 192 191 190 164 166 200 212 198 183 175 171 174 176 175 182 188 179 179 190 185 175 182 198 208 208 208 208 209 210 209 206 207 213 219 215 212 216 218 219 225 227 225 224 218
143 148 146 140 142 140 136 147 157 152 153 157 158 161 160 159 160 157 151 148 144 139 137 138 138 139 144 145 135 130 108 102 131 129 98 132 186 206 200 204 208 202 202 198 186 183 185 191 199 180 164 171 173 172 176 180 182 180 180 192 200 191 192 204 213 214 215 216 219 221 218 213 212 214 220 222 218 220 225 228 234 236 235 235 228
142 144 141 136 134 128 123 135 161 169 170 164 158 157 156 155 154 151 148 141 131 131 135 138 139 140 139 132 133 143 106 114 163 163 125 125 182 217 198 207 214 209 212 209 199 200 181 169 190 191 173 177 180 181 179 175 179 187 181 185 200 209 208 213 217 218 221 220 220 225 225 224 221 215 215 223 226 229 233 238 244 243 243 250 245
139 138 136 135 135 130 125 129 140 153 161 156 147 146 146 144 143 138 130 121 116 116 121 127 127 122 126 132 147 172 174 164 179 186 189 191 354 31 181 207 217 213 215 213 204 204 187 162 169 184 179 177 181 187 189 184 191 203 191 183 196 211 216 223 226 225 227 229 228 228 229 231 230 222 221 228 231 231 234 245 254 250 246 249 252
114 118 122 130 136 136 133 129 120 117 126 130 129 130 125 118 119 121 122 121 116 105 103 106 102 106 130 149 159 165 166 172 184 192 202 212 215 65 199 214 213 214 217 215 209 205 197 178 163 162 168 172 174 182 187 189 201 211 208 204 212 220 225 234 240 242 246 247 242 238 236 236 233 227 230 236 235 230 230 238 246 250 251 251 254
92 94 102 116 127 130 130 130 125 119 119 122 126 126 119 111 105 107 124 132 115 99 104 111 114 125 141 145 142 144 153 166 184 197 205 213 209 216 263 258 216 213 216 213 213 207 202 199 192 188 188 184 185 194 199 203 212 219 222 224 225 227 230 235 240 247 259 267 260 253 251 253 248 238 238 242 242 240 239 239 241 246 254 256 256
84 81 86 103 116 124 128 130 127 123 124 127 128 127 126 128 122 100 121 133 114 106 112 115 124 140 143 137 134 130 126 134 162 192 203 214 212 214 258 288 232 221 217 213 220 218 211 213 210 208 208 206 212 219 218 219 224 229 236 237 237 237 236 238 240 243 247 251 253 255 258 262 261 256 255 253 250 249 246 246 249 249 247 248 251
78 79 81 89 100 113 123 123 115 112 115 121 124 124 125 128 125 114 112 112 111 115 116 109 114 128 134 135 136 125 115 117 124 141 171 203 206 205 227 263 235 229 223 217 226 230 234 242 235 228 226 222 226 227 227 233 235 237 242 242 241 242 242 244 245 242 241 242 244 249 254 256 257 257 256 250 245 245 247 250 257 257 247 243 248
71 76 79 81 86 94 103 103 100 101 104 109 114 115 113 113 116 116 110 103 107 112 111 104 102 107 113 118 124 122 112 113 119 121 137 152 155 183 228 233 226 223 214 211 222 228 232 238 241 246 246 235 232 228 229 241 249 248 249 248 246 247 245 245 244 242 241 240 239 243 247 247 247 248 248 242 234 234 244 251 249 247 248 251 254
65 71 76 78 80 88 97 99 100 103 105 107 109 110 110 106 103 105 108 110 111 108 105 103 99 97 100 101 109 120 112 110 119 122 134 155 146 88 277 242 226 233 219 212 227 229 221 225 239 252 248 231 229 226 227 238 247 253 256 255 253 253 252 252 251 250 249 250 250 250 250 252 251 250 250 247 241 239 244 249 246 242 243 249 256
61 66 71 73 76 84 92 97 100 103 105 108 110 113 115 111 103 101 107 117 119 112 107 110 107 106 112 110 102 106 108 103 109 116 121 161 151 66 351 304 240 241 245 234 237 230 221 231 244 249 246 241 236 234 237 242 246 255 264 263 260 259 261 262 261 255 248 247 251 254 256 259 259 255 253 252 250 249 248 248 249 246 243 245 250
60 63 69 70 71 76 79 85 93 96 98 102 108 114 116 115 113 108 107 118 124 120 113 112 109 108 121 121 106 88 82 69 49 58 45 351 165 91 3 353 354 349 321 283 273 255 230 240 251 249 250 252 249 249 253 254 254 258 266 270 268 266 267 270 275 274 255 246 249 255 260 264 264 262 259 255 253 252 251 250 249 246 248 252 250
60 64 68 68 68 70 72 77 85 88 89 92 100 105 108 110 112 108 103 111 121 121 116 113 110 103 104 115 105 52 2 359 355 343 339 342 303 246 349 346 343 346 336 311 301 290 234 212 231 248 252 254 254 258 262 266 266 262 260 265 270 270 269 270 276 284 278 263 259 261 265 268 269 267 264 260 256 253 252 251 249 246 249 254 253
57 60 62 63 63 63 65 69 74 77 80 84 87 89 89 93 99 103 104 107 114 122 124 121 119 115 104 98 88 35 359 355 353 344 337 341 352 118 285 288 285 311 323 314 304 295 265 170 200 258 266 266 267 271 277 282 284 279 272 271 272 272 275 275 275 279 285 280 268 261 259 259 258 257 257 258 256 254 252 250 246 244 245 247 250
52 56 58 59 58 58 58 60 63 65 66 72 76 76 78 80 86 98 108 108 106 112 122 124 127 131 128 118 104 68 17 7 8 5 359 354 355 332 278 289 287 301 319 321 313 302 306 334 312 287 284 288 289 288 288 289 290 290 288 286 283 282 282 282 281 281 282 279 272 265 260 255 253 251 249 247 248 248 249 247 240 234 232 232 235
47 50 52 53 53 54 55 56 60 60 60 64 69 71 73 77 82 91 101 111 118 119 126 140 148 149 148 140 125 115 85 24 16 18 20 16 14 11 353 339 331 320 320 320 319 318 316 306 293 285 286 290 292 292 292 291 289 288 288 287 288 288 286 285 284 282 278 274 273 272 267 259 255 253 253 254 253 241 230 226 223 221 223 225 228
41 44 45 47 48 50 52 53 55 55 55 57 62 64 62 63 71 76 73 86 121 130 133 147 157 152 149 140 125 119 118 73 17 14 15 16 14 12 9 3 353 344 338 325 314 312 302 289 285 287 290 293 295 297 298 297 295 292 291 290 290 292 292 291 288 283 278 272 269 267 265 263 263 261 260 261 255 233 216 213 219 226 232 235 235
40 40 41 42 44 47 50 51 50 49 48 49 50 48 44 42 45 49 50 52 56 68 89 105 108 109 115 119 114 101 97 97 42 19 15 14 11 7 8 8 3 1 1 346 324 315 307 301 302 304 304 305 306 306 306 304 299 295 294 294 295 296 296 292 285 278 273 270 267 265 265 267 270 269 261 252 243 232 230 234 240 247 253 254 247
43 43 43 42 43 47 50 48 46 46 45 46 44 39 34 34 34 31 34 42 44 45 49 52 62 72 72 73 84 88 92 100 72 35 19 12 6 3 3 3 4 8 9 355 341 335 325 318 319 321 319 318 317 314 311 307 302 298 297 295 292 289 285 278 273 273 274 273 273 273 272 275 277 273 258 246 239 237 242 244 237 237 241 234 220
41 44 45 45 47 48 49 50 50 50 48 46 45 40 34 32 33 31 27 22 23 36 43 41 45 50 51 53 57 81 107 90 60 32 16 6 0 358 356 355 357 0 359 351 342 333 321 316 318 320 317 316 314 311 310 307 301 298 297 291 283 276 272 272 274 280 286 286 283 282 282 285 288 279 255 238 227 224 232 232 220 215 213 202 188
37 42 44 46 49 48 47 48 51 54 57 55 50 42 36 35 36 34 25 17 14 22 30 38 40 32 29 33 25 32 75 64 34 6 353 351 354 358 359 356 355 351 343 335 330 325 315 312 316 317 311 308 308 308 307 305 301 300 303 301 292 284 283 282 280 282 288 288 286 288 287 283 284 279 249 222 208 209 220 218 204 199 198 191 177
39 39 36 37 43 46 45 45 46 51 62 65 57 47 42 41 37 26 18 24 38 39 30 34 39 30 26 31 25 22 35 28 3 344 336 334 344 5 10 360 356 354 344 336 336 336 326 314 316 322 320 317 319 320 319 319 317 313 313 310 303 297 295 294 293 295 298 296 291 290 289 282 276 269 247 226 215 209 210 207 200 195 189 177 166
41 42 39 34 30 31 38 41 42 48 57 66 66 57 46 40 39 37 37 44 60 71 60 57 61 56 44 39 32 23 16 3 349 345 346 339 339 3 9 3 6 8 2 353 345 331 315 313 328 339 337 330 328 326 323 321 317 313 311 306 302 300 298 296 296 298 299 301 300 295 290 281 268 258 251 239 224 210 204 203 200 191 177 162 154
40 45 47 35 14 12 32 40 35 41 47 43 50 79 74 53 47 50 58 64 64 64 62 59 59 59 56 49 39 27 15 6 3 7 9 7 11 9 6 21 25 19 10 360 343 322 313 328 341 341 334 329 326 323 320 318 316 314 312 309 305 303 301 297 292 288 289 297 302 299 293 285 272 263 257 241 221 206 200 195 187 175 169 163 153
36 38 49 44 17 11 33 43 38 42 43 32 27 25 129 111 82 62 54 54 55 53 49 45 42 41 42 47 46 36 25 20 21 24 24 27 35 34 35 46 42 26 2 341 333 334 345 351 348 342 337 332 326 323 322 321 320 317 315 314 313 313 315 318 314 305 300 305 308 304 297 289 279 273 260 237 218 202 192 189 183 174 170 166 157
33 17 13 27 26 27 36 33 34 46 40 35 34 12 359 89 112 106 88 65 51 44 39 34 32 32 33 37 41 38 34 32 32 34 37 42 53 67 76 77 59 33 3 337 329 344 357 354 346 346 345 339 334 333 329 324 322 320 318 319 318 315 319 331 336 334 333 331 323 313 303 293 281 267 247 223 207 192 179 176 173 166 159 150 141
34 19 1 350 351 9 34 27 27 45 39 37 58 46 20 15 14 157 159 147 125 93 55 33 28 28 28 32 38 38 36 37 39 42 49 55 57 43 313 258 227 10 352 337 336 349 355 351 347 348 346 341 338 337 331 326 325 323 320 322 324 322 327 340 350 350 345 336 326 316 308 299 282 253 218 189 178 170 159 150 146 142 134 126 122
56 75 62 8 353 3 41 27 11 25 53 60 64 51 42 22 348 350 114 156 168 155 135 86 39 27 23 26 38 43 40 39 40 44 47 48 40 17 346 317 293 331 340 340 346 352 354 353 350 346 344 343 341 337 334 332 330 328 329 335 340 342 346 354 356 349 340 335 330 322 315 307 281 234 189 161 147 139 131 126 123 119 115 118 128
41 94 113 31 5 19 29 6 350 354 10 88 105 70 38 10 307 321 32 18 343 21 122 117 81 40 32 30 34 41 40 35 32 33 38 44 40 24 9 7 19 16 5 3 360 353 353 356 351 344 342 343 341 339 339 337 335 336 342 348 354 358 358 359 360 358 356 355 350 343 346 8 106 150 140 125 112 107 107 107 104 101 99 102 112
7 16 3 352 17 43 39 27 21 9 293 270 268 98 61 27 334 299 49 40 354 329 6 75 89 79 54 39 28 26 30 28 27 27 29 31 31 24 16 18 22 18 15 14 5 352 351 354 350 345 345 345 344 345 346 343 342 347 352 357 7 15 15 13 13 18 24 27 33 53 76 82 91 108 112 103 95 94 97 97 94 97 100 99 101
1 19 4 348 295 329 317 196 262 290 263 266 294 35 57 8 329 313 78 78 26 329 344 51 48 31 28 24 14 9 14 21 26 26 24 21 22 24 26 25 23 20 18 15 7 357 355 355 352 352 355 355 354 355 356 353 354 359 3 7 18 28 32 32 35 42 51 59 70 82 87 86 87 94 97 95 90 88 89 89 87 91 98 100 105
74 47 22 4 227 281 319 284 231 273 277 274 16 64 13 323 333 352 56 84 56 354 347 30 36 24 14 11 11 11 19 34 34 28 26 26 25 26 29 26 22 20 15 10 7 4 1 359 359 1 4 7 7 7 9 9 11 14 17 22 31 41 47 49 50 54 58 63 71 78 81 82 84 87 89 90 89 87 85 84 83 83 82 67 74
113 70 37 39 223 267 306 304 271 272 280 288 291 295 344 346 348 355 18 40 42 28 30 42 41 31 28 43 49 27 15 34 43 34 31 33 29 28 29 26 21 19 15 10 11 10 7 6 8 9 13 16 17 17 19 21 25 31 37 42 49 59 66 67 62 56 54 57 63 66 67 68 71 75 79 83 84 84 85 85 86 87 82 69 77
306 251 136 127 167 232 250 258 277 303 317 299 302 318 358 350 330 326 36 54 66 85 80 72 63 51 46 55 53 23 7 31 47 41 37 38 33 30 31 27 22 21 18 15 15 14 14 17 17 16 17 18 20 24 26 27 32 39 43 47 51 57 66 71 68 60 57 60 63 60 55 55 62 72 81 87 87 85 85 90 97 96 91 92 92
323 300 174 157 183 264 258 252 262 257 243 266 294 324 335 325 315 315 58 103 121 119 116 112 98 76 56 45 38 33 40 57 57 45 41 42 37 34 33 30 28 27 26 25 23 20 20 21 20 22 27 27 28 32 31 28 34 41 44 50 55 57 61 66 63 58 57 60 61 55 50 52 58 61 66 78 85 86 88 94 99 93 80 72 69
311 309 287 281 293 287 281 288 276 227 222 265 318 330 311 284 231 199 171 149 141 134 122 107 89 74 63 53 47 48 56 64 59 52 49 45 40 39 37 35 34 32 30 30 30 29 34 38 42 50 55 52 51 52 48 41 44 47 50 54 59 60 60 59 55 53 54 52 49 45 44 46 50 50 51 58 65 66 62 60 60 63 60 54 51
292 292 291 301 292 268 245 294 289 199 102 355 313 288 277 232 181 172 164 147 135 124 106 88 72 60 59 60 56 55 58 58 56 56 55 48 44 43 41 39 38 37 38 43 48 55 65 70 68 68 69 66 65 69 69 68 68 67 65 63 62 63 64 61 58 61 60 50 41 41 42 40 43 52 59 61 59 57 54 49 47 49 48 44 47
288 293 297 315 313 300 311 2 226 156 153 210 229 222 195 179 163 154 155 147 130 114 102 92 84 73 67 65 62 62 65 65 61 57 54 51 50 48 45 45 43 42 49 62 68 72 79 81 74 69 69 70 72 74 74 75 74 72 71 72 70 68 65 60 57 61 59 48 39 37 35 30 32 38 41 43 50 61 62 53 47 51 48 39 41
288 297 298 304 307 309 332 88 155 177 183 197 205 185 150 155 149 145 151 146 133 125 119 110 101 89 82 79 73 69 69 71 70 67 61 57 56 52 51 53 50 45 53 66 70 71 75 77 75 71 68 68 70 71 71 72 68 60 57 61 65 66 65 56 45 41 38 32 29 25 22 26 32 27 22 30 43 57 61 52 47 53 50 40 40
273 284 292 292 285 288 296 128 141 196 227 199 189 178 158 152 149 152 152 143 140 146 141 129 123 117 107 97 89 83 79 77 77 77 72 66 63 58 55 57 56 51 57 69 73 71 69 72 74 72 62 53 53 54 54 53 48 38 31 32 37 49 65 62 43 25 13 13 17 12 9 22 30 27 26 32 40 51 58 62 65 59 48 39 44
259 267 281 279 262 264 253 165 151 166 196 197 186 175 167 162 163 163 159 154 158 159 145 133 135 132 119 108 99 93 87 80 76 76 74 72 72 67 61 61 60 54 54 61 65 65 62 63 66 64 52 38 35 35 30 27 26 20 12 11 18 25 34 42 48 55 53 34 22 8 8 23 32 35 35 34 31 36 49 56 58 52 42 38 48
251 254 269 272 262 266 269 212 178 176 176 175 182 179 171 169 171 172 167 162 160 157 146 142 144 137 121 107 98 92 90 84 78 76 74 76 81 80 70 62 60 56 51 47 47 48 46 44 48 51 48 39 34 30 23 23 28 25 16 13 16 16 16 34 74 100 89 44 20 14 23 35 40 44 48 42 33 38 52 58 54 51 48 44 44
245 244 256 263 254 247 252 250 238 222 193 177 180 178 174 175 176 175 174 170 163 157 151 147 145 140 130 122 110 94 88 87 83 79 76 76 80 86 79 64 56 54 52 44 38 37 34 29 31 37 39 42 42 36 28 32 40 37 29 21 15 11 22 54 95 117 91 51 35 31 34 39 44 50 56 52 40 39 49 48 35 32 41 43 38
242 236 243 253 251 243 237 235 235 236 229 212 190 173 175 184 184 175 174 176 170 162 156 152 150 148 141 129 117 103 91 83 74 69 70 72 77 84 85 78 64 55 51 45 39 37 34 32 32 30 28 33 42 45 41 42 45 43 40 38 35 33 43 63 94 112 94 63 47 38 32 32 35 35 34 32 28 32 41 38 22 16 23 31 29